カタログに戻る

SL-14 R/B

運用中PO
NORAD 14820·ROCKET BODY·🇷🇺 Russia

打ち上げ Mar 15, 1984 から Plesetsk Cosmodrome

Loading…

次のパス (今後24時間)

TLE

最新Source: Space-Track

元期: Sep 14, 2026, 20:01 UTC

1 14820U 84027B   26257.83453919  .00000327  00000-0  34387-4 0  9991
2 14820  82.5389  67.6284 0019369  68.8867 291.4417 14.86110613275728

AllMySatでSL-14 R/Bをリアルタイム追跡

Download on the App Store